Flag for U.S.A. Weather past 2 weeks in San Diego, California, U.S.A.

Now
88 °F

Passing clouds.


Feels Like: 91 °F
Forecast: 74 / 88 °F
Wind: 7 mph from North

Location: San Diego - North Island

Current Time: Sep 16, 2014 at 11:35:58 AM

Latest Report: Sep 16, 2014 at 10:52 AM


Visibility: 10 mi

Pressure: 29.74 "Hg

Humidity: 50%

Dew point: 67 °F

Location of San DiegoLocation

Historic Weather in San Diego — Graph

°F

San Diego temperature yesterday

Maximum temperature yesterday: 85 °F (at 11:52 AM)
Minimum temperature yesterday: 73 °F (at 12:52 AM)
Average temperature yesterday: 78 °F

Past Weeks' High & Low Weather Summary

 TemperatureHumidityPressure
High89 °F (Sep 8, 12:52 PM)97% (Sep 14, 10:52 PM)29.91 "Hg (Sep 14, 10:52 PM)
Low67 °F (Sep 2, 6:52 AM)18% (Sep 8, 1:52 PM)29.68 "Hg (Sep 13, 4:52 PM)
Average75 °F75%29.80 "Hg
* Reported Sep 1 9:52 AM — Sep 16 9:52 AM, San Diego, Weather by CustomWeather, © 2014

Note: Actual official high and low records may vary slightly from our data, if they occured in-between our weather recording intervals... More about our weather records

Advertising

San Diego weather history for previous 24 hours

 ConditionsComfort  
Time TempWeatherWind HumidityBarometerVisibility
9:52 AM
Sep 16
84 °FPassing clouds.5 mph55%29.76 "Hg10 mi
8:52 AM82 °FPassing clouds.5 mph60%29.76 "Hg10 mi
7:52 AM78 °FPassing clouds.5 mph71%29.75 "Hg10 mi
6:52 AM75 °FPassing clouds.6 mph82%29.74 "Hg10 mi
5:52 AM74 °FPassing clouds.No wind82%29.74 "Hg9 mi
4:52 AM73 °FClear.No wind84%29.73 "Hg9 mi
3:52 AM75 °FClear.5 mph82%29.74 "Hg9 mi
2:52 AM75 °FPassing clouds.5 mph85%29.75 "Hg8 mi
1:52 AM75 °FPassing clouds.6 mph85%29.76 "Hg8 mi
12:52 AM75 °FPassing clouds.6 mph82%29.78 "Hg8 mi
11:52 PM
Sep 15
75 °FPassing clouds.6 mph88%29.78 "Hg8 mi
10:52 PM73 °FPassing clouds.5 mph94%29.79 "Hg8 mi
9:52 PM73 °FPassing clouds.6 mph90%29.78 "Hg8 mi
8:52 PM75 °FPassing clouds.5 mph82%29.78 "Hg8 mi
7:52 PM78 °FScattered clouds.No wind71%29.76 "Hg8 mi
6:52 PM79 °FScattered clouds.7 mph72%29.75 "Hg10 mi
5:52 PM80 °FScattered clouds.8 mph71%29.74 "Hg10 mi
4:52 PM83 °FScattered clouds.10 mph61%29.72 "Hg10 mi
3:52 PM85 °FPassing clouds.9 mph53%29.72 "Hg10 mi
2:52 PM85 °FPassing clouds.12 mph51%29.73 "Hg10 mi
1:52 PM83 °FPassing clouds.12 mph65%29.75 "Hg10 mi
12:52 PM83 °FPassing clouds.13 mph65%29.76 "Hg10 mi
11:52 AM85 °FPassing clouds.12 mph57%29.77 "Hg10 mi
Weather by CustomWeather, © 2014

See weather overviewHow to use our weather pages